Regional Weather Roundup
Issued by NWS Bismarck, ND

Home | Current Version | Previous Version | Text Only | Print | Product List | Glossary On
Versions: 1 2 3 4 5 6 7 8 9 10 11 12 13 14 15 16 17 18 19 20 21 22 23 24 25 26 27 28 29 30 31 32 33 34 35 36 37 38 39 40 41 42 43 44 45 46 47 48 49 50
000
ASUS43 KBIS 051210
RWRBIS

NWR BROADCAST TEXT
NATIONAL WEATHER SERVICE BISMARCK ND
700 AM CDT SAT SEP 05 2015

NOTE: "FAIR" INDICATES FEW OR NO CLOUDS BELOW 12,000 FEET WITH NO
SIGNIFICANT WEATHER AND/OR OBSTRUCTIONS TO VISIBILITY.


CITY           SKY/WX    TMP DP  RH WIND       PRES   REMARKS
WILLISTON      MOCLDY    59  57  93 NE9       29.87S
MINOT          CLOUDY    59  57  93 NE15      29.90F
MINOT AFB      CLOUDY    59  59 100 E23       29.86F
BISMARCK       CLOUDY    68  68 100 E12       29.84F FOG
DICKINSON      CLOUDY    63  60  90 E14       29.84F
GARRISON         N/A     64  60  87 NE10      29.88F
HETTINGER ARPT CLOUDY    64  62  93 NE21      29.83F FOG
JAMESTOWN      FOG       67  66  97 E12       29.86R VSB 1/2
CROSBY         CLOUDY    54  54 100 NE13      29.92S
HARVEY         CLOUDY    61  61 100 NE9       29.92R FOG
HAZEN          CLOUDY    63  61  94 NE10G22   29.87F
LINTON         CLOUDY    68  68 100 CALM      29.82S FOG
OAKES            N/A     66  66 100 NE8       29.83F FOG
RUGBY          CLOUDY    57  57 100 NE12      29.95R
STANLEY        CLOUDY    57  57 100 NE6G12    29.88S
$$

CITY           SKY/WX    TMP DP  RH WIND       PRES   REMARKS
GRAND FORKS    CLOUDY    64  63  96 N12       29.88S
GRAND FORKS AF FOG       63  63 100 N13       29.89F VSB 1/2
DEVILS LAKE    CLOUDY    61  55  82 NE14      29.89F
FARGO          CLEAR     68  66  93 NE3       29.84S
CAVALIER       FOG       61  61 100 N7        29.91F VSB 1
GRAFTON        CLOUDY    61  61 100 N10       29.92R FOG
GWINNER        CLOUDY    66  66 100 NE5       29.85R
LANGDON        FOG       59  59 100 NE13      29.93F VSB 1/2
ROLLA          FOG       55  55 100 N9        29.98R VSB 1/2
WALHALLA       FOG       59  59 100 MISG      29.92F VSB 1
$$

CITY           SKY/WX    TMP DP  RH WIND       PRES   REMARKS
ABERDEEN       CLEAR     67  65  93 NE6       29.79F FOG
MOBRIDGE       FOG       71  71 100 CALM      29.78R VSB 1
BUFFALO          N/A     64  61  90 E16       29.75F
RAPID CITY     CLOUDY    67  59  75 N5        29.83S
GLASGOW        CLOUDY    53  48  83 N7        29.93S
SIDNEY         CLOUDY    59  55  88 N10         N/A
WOLF POINT     CLOUDY    56  49  77 NE18G25   29.89F
GLENDIVE       CLOUDY    57  55  94 NE15      29.86S
MILES CITY     CLOUDY    60  57  89 NE14      29.84R
BAKER          MOCLDY    61  58  90 CALM      29.84R
$$

CITY           SKY/WX    TMP DP  RH WIND       PRES   REMARKS
BILLINGS       CLOUDY    53  48  83 N8        29.90F
GREAT FALLS    RAIN      47  47 100 N12       29.91S VSB 1/4
REGINA         LGT RAIN  50  48  93 N14G22    30.04R
ESTEVAN        MOCLDY    54  52  94 NE14      29.92F
$$



USA.gov is the U.S. government's official web portal to all federal, state and local government web resources and services.